Hourly Data Report for February 16, 2002

SHERBROOKE A
QUEBEC

45°26'00.000" N
71°41'00.000" W
241.40 m
7028124
71610
YSC

Download Data

Hourly Data (February 2002)
Hourly Data Report for February 16, 2002
TIME
LST
Temp Definition
°C
Dew Point Definition
°C
Rel Hum Definition
%
Precip. Amount Definition
mm

Wind Dir Definition
10's deg

Wind Spd Definition
km/h
Visibility Definition
km
Stn Press Definition
kPa
Hmdx Definition


Wind Chill Definition


Weather Definition


00:00 4.1 -4.4 54   19 13 15.0 97.80      
01:00 3.7 -3.8 58   23 15 15.0 97.80      
02:00 4.1 -3.7 57   21 13 15.0 97.76      
03:00 3.7 -2.8 62   20 13 15.0 97.75     Rain
04:00 3.1 -1.2 73   21 11 15.0 97.71     Rain
05:00 2.7 -0.5 79   23 9 15.0 97.67      
06:00 3.1 -2.4 67   21 11 15.0 97.66     Snow
07:00 3.6 -2.1 66   23 13 15.0 97.70      
08:00 3.8 -2.0 66   20 13 24.1 97.73     Mostly Cloudy
09:00 3.8 -1.2 70   23 19 19.3 97.77     Rain Showers
10:00 2.4 0.7 89   28 6 19.3 97.79     Rain Showers
11:00 1.4 0.5 94   29 22 6.4 97.77     Snow Showers
12:00 2.3 0.4 87   27 19 24.1 97.69     Mostly Cloudy
13:00 2.0 0.2 88   28 20 24.1 97.67     Cloudy
14:00 2.4 -0.2 83   26 15 24.1 97.65     Mostly Cloudy
15:00 2.5 -1.3 76   27 20 24.1 97.65     Cloudy
16:00 2.5 -2.2 71   27 13 24.1 97.68     Cloudy
17:00 1.8 -1.7 78   28 7 24.1 97.71     Cloudy
18:00 1.3 -2.2 77   28 7 15.0 97.74      
19:00 0.8 -2.7 77   26 9 15.0 97.76      
20:00 -0.1 -3.0 81   20 6 15.0 97.75   -2  
21:00 -0.5 -2.6 86   26 4 15.0 97.77   -2  
22:00 -0.3 -2.7 84   25 6 15.0 97.76   -2  
23:00 -1.3 -2.6 91     0 15.0 97.71      

Notes on Data Quality.

Legend

  • E = Estimated
  • M = Missing
  • NA = Not Available*
  • [empty] = Indicates an unobserved value
Date modified: